Location: downtown San Diego
(32.7310°N, 117.1990°W)
Time: 20:40:48
(UTC-08:00)

SPOT 5 - Pass Details

Date: 19 May 2017
Orbit: 624 x 815 km, 98.4° (Epoch: 20 November)

Event Time Altitude Azimuth Distance (km) Brightness Sun altitude
Exits shadow 22:46:43 30° 282° (WNW) 1,129 4.2 -30.1°
Drops below altitude 10° 22:49:50 10° 325° (NW) 2,000 6.1 -30.5°
Sets 22:52:12 0° 336° (NNW) 2,909 7.2 -30.7°
